Regional Weather Roundup
Issued by NWS

Home | Current Version | Previous Version | Graphics & Text | Print | Product List | Glossary On
Versions: 1 2 3 4 5 6 7 8 9 10 11 12 13 14 15 16 17 18 19 20 21 22 23 24 25 26 27 28 29 30 31 32 33 34 35 36 37 38 39 40 41 42 43 44 45 46 47 48 49 50
000
ASUS43 KTOP 201759
RWRKS

WEATHER ROUNDUP FOR KANSAS
NATIONAL WEATHER SERVICE GOODLAND KS
1200 PM CST MON NOV 20 2017

NOTE:  "FAIR" INDICATES FEW OR NO CLOUDS BELOW 12,000 FEET WITH NO
SIGNIFICANT WEATHER AND/OR OBSTRUCTIONS TO VISIBILITY.

KSZ001>006-013>018-027>032-041>047-201900-
NORTHWEST KANSAS

CITY           SKY/WX    TMP DP  RH WIND       PRES   REMARKS
GOODLAND       SUNNY     69   4   7 W13       29.77F
6HR MIN TEMP:  30; 6HR MAX TEMP:  69;

HAYS           SUNNY     57  24  28 S14       29.75F
HILL CITY      SUNNY     65  19  17 W7        29.75F
6HR MIN TEMP:  25; 6HR MAX TEMP:  65;

RUSSELL        CLOUDY    56  25  30 S17       29.74F
6HR MIN TEMP:  29; 6HR MAX TEMP:  56;

$$

KSZ061>065-074>080-084>089-201900-
SOUTHWEST KANSAS

CITY           SKY/WX    TMP DP  RH WIND       PRES   REMARKS
DODGE CITY     SUNNY     60  22  23 S13       29.81F
6HR MIN TEMP:  30; 6HR MAX TEMP:  60;

GARDEN CITY    SUNNY     64  17  16 W10       29.80F
6HR MIN TEMP:  20; 6HR MAX TEMP:  65;

GREAT BEND     CLOUDY    56  24  29 S17       29.79F
LIBERAL        CLOUDY    58  19  22 SW8       29.86S
$$

KSZ066>073-081>083-090>101-201900-
SOUTHEAST KANSAS

CITY           SKY/WX    TMP DP  RH WIND       PRES   REMARKS
CHANUTE        SUNNY     59  31  34 S23G31    29.94F
6HR MIN TEMP:  38; 6HR MAX TEMP:  60;

COFFEYVILLE    SUNNY     59  30  33 S23G33    29.97F
6HR MIN TEMP:  38; 6HR MAX TEMP:  59;

HUTCHINSON     SUNNY     58  24  27 SW18G25   29.85F
6HR MIN TEMP:  35; 6HR MAX TEMP:  58;

MEDICINE LODGE   N/A     58  22  24 S18G26    29.84F
NEWTON         SUNNY     56  26  31 SW29G37   29.84F
PARSONS        SUNNY     59  31  34 S18G31    29.96F
6HR MIN TEMP:  38; 6HR MAX TEMP:  59;

WICHITA INTL   MOSUNNY   59  26  28 S31G37    29.86F
6HR MIN TEMP:  36; 6HR MAX TEMP:  59;

WICHITA MCCONL SUNNY     58  25  27 SW29G37   29.85F
WINFIELD       SUNNY     61  28  28 SW29G39   29.93F
6HR MIN TEMP:  40; 6HR MAX TEMP:  61;

$$

KSZ007>012-019>026-033>040-048>060-102>105-201900-
NORTHEAST KANSAS

CITY           SKY/WX    TMP DP  RH WIND       PRES   REMARKS
CONCORDIA      SUNNY     55  23  28 SW14      29.75F
6HR MIN TEMP:  39; 6HR MAX TEMP:  55;

EMPORIA        SUNNY     60  25  26 SW31G40   29.85F
6HR MIN TEMP:  36; 6HR MAX TEMP:  60;

LAWRENCE       SUNNY     60  27  28 S21G36    29.85F
6HR MIN TEMP:  37; 6HR MAX TEMP:  61;

MANHATTAN      SUNNY     59  25  27 SW24G31   29.79F
6HR MIN TEMP:  40; 6HR MAX TEMP:  59;

OLATHE IND     SUNNY     58  29  33 S26G37    29.87F
6HR MIN TEMP:  40; 6HR MAX TEMP:  59;

OLATHE EXE     SUNNY     57  30  35 S28G37    29.86F
6HR MIN TEMP:  39; 6HR MAX TEMP:  57; 6HR PCP: TRACE;

SALINA         SUNNY     59  24  26 S24G31    29.79F
6HR MIN TEMP:  38; 6HR MAX TEMP:  59;

TOPEKA BILLARD SUNNY     59  27  29 SW18G35   29.82F
6HR MIN TEMP:  42; 6HR MAX TEMP:  59;

TOPEKA FORBES  SUNNY     60  28  29 S26G32    29.82F
6HR MIN TEMP:  42; 6HR MAX TEMP:  60;

$$



USA.gov is the U.S. government's official web portal to all federal, state and local government web resources and services.